Simultaneous Nadir Overpasses (SNOs) Predictions

Prediction of SNOs over PacNW region [( 10.00, 139.50) to ( 22.70, 165.60)] between AQUA and NPP Satellites:

Table of predicted SNOs over PacNW region for the next 30.0 days since TLE Epoch: 5/20/2023
Index Date (AQUA) Time (AQUA) AQUA Lat,Lon Date (NPP) Time (NPP) NPP Lat,Lon Distance(km) Time Diff (sec)
1 05/23/2023 15:51:22 21.66, 152.61 05/23/2023 15:51:05 22.57, 147.65 521.46 17
2 05/26/2023 04:10:36 22.69, 141.06 05/26/2023 04:07:06 22.55, 136.38 480.57 210
3 06/05/2023 15:09:35 16.61, 162.37 06/05/2023 15:07:55 17.58, 157.54 525.22 100
